• Join FlightAware (Why Join?)
  • Login
  • US Flag 
03:34PM EST


 

Airport Tracker/Info


-or-


 

Live Flight TrackerFlight Track Log ✈ SWA303 ✈ 12-Apr-2013 ✈ KSNA - KOAK

Flight Track Log - Related Links

Times and Time Zones

All times are in EDT time to prevent confusion due to time zone crossing. See the SWA303 flight status page for this flight to view local times or setup timezone preferences in your user account.

Time Position Orientation Groundspeed Altitude Reporting Facility
EDT Latitude Longitude Course Direction KTS MPH feet Rate Location/Type
11:50PM 33.6492 -117.8836 239° Southwest 140 161 1,800  Level Los Angeles Center
11:51PM 33.6092 -117.8939 192° South 146 168 3,100 2,049 Climbing Los Angeles Center
11:52PM 33.5478 -117.9108 193° South 201 231 6,000 3,677 Climbing Los Angeles Center
11:53PM 33.4817 -117.9642 214° Southwest 257 296 10,700 4,195 Climbing Los Angeles Center
11:54PM 33.4042 -118.0311 216° Southwest 316 364 14,600 4,244 Climbing Los Angeles Center
11:55PM 33.4044 -118.3412 239° Southwest  Level FlightAware Approximate
11:55PM 33.3883 -118.1736 262° West 361 415 19,400  Level Los Angeles Center
11:56PM 33.4181 -118.2858 288° West 374 430 22,800 2,927 Climbing Los Angeles Center
11:57PM 33.5200 -118.3211 344° North 386 444 25,400 2,488 Climbing Los Angeles Center
11:58PM 33.6281 -118.3511 347° North 396 456 27,900 2,488 Climbing Los Angeles Center
11:59PM 33.7397 -118.3806 348° North 415 478 30,500 2,000 Climbing Los Angeles Center
12:00AM 33.8547 -118.4117 347° North 415 478 32,000 726 Climbing Los Angeles Center
12:01AM 33.9728 -118.4508 345° North 406 467 32,000  Level Los Angeles Center
12:02AM 34.0767 -118.5033 337° Northwest 406 467 32,000  Level Los Angeles Center
12:03AM 34.1792 -118.5536 338° Northwest 400 460 32,000 146 Level Los Angeles Center
12:04AM 34.2822 -118.6050 338° Northwest 400 460 32,300 1,467 Climbing Los Angeles Center
12:05AM 34.3836 -118.6550 338° Northwest 396 456 35,300 2,691 Climbing Los Angeles Center
12:07AM 34.5214 -118.7233 338° Northwest 383 441 38,400 2,146 Climbing Los Angeles Center
12:08AM 34.6186 -118.7719 338° Northwest 380 437 39,700 537 Climbing Los Angeles Center
12:09AM 34.7194 -118.8214 338° Northwest 387 445 39,500 -829 Descending Los Angeles Center
12:10AM 34.8156 -118.8747 336° Northwest 384 442 38,000 -738 Descending Los Angeles Center
12:11AM 34.8981 -118.9553 321° Northwest 383 441 38,000  Level Los Angeles Center
12:12AM 34.9778 -119.0331 321° Northwest 389 448 38,000  Level Los Angeles Center
12:13AM 35.0614 -119.1139 322° Northwest 386 444 38,000  Level Los Angeles Center
12:14AM 35.1619 -119.2133 321° Northwest 386 444 38,000  Level Los Angeles Center
12:15AM 35.2469 -119.2964 321° Northwest 391 450 38,000  Level Los Angeles Center
12:16AM 35.3300 -119.3783 321° Northwest 385 443 38,000  Level Los Angeles Center
12:17AM 35.4142 -119.4608 321° Northwest 388 447 38,000  Level Los Angeles Center
12:18AM 35.5044 -119.5503 321° Northwest 389 448 38,000  Level Los Angeles Center
12:19AM 35.5878 -119.6333 321° Northwest 389 448 38,000  Level Los Angeles Center
12:20AM 35.6711 -119.7153 321° Northwest 387 445 38,000  Level Los Angeles Center
12:21AM 35.7536 -119.7997 320° Northwest 387 445 38,000  Level Los Angeles Center
12:22AM 35.8372 -119.8836 321° Northwest 388 447 38,000  Level Los Angeles Center
12:23AM 35.9217 -119.9678 321° Northwest 391 450 38,000  Level Los Angeles Center
12:24AM 36.0056 -120.0522 321° Northwest 390 449 38,000  Level Los Angeles Center
12:25AM 36.0883 -120.1381 320° Northwest 391 450 38,000  Level Los Angeles Center
12:26AM 36.1897 -120.2408 321° Northwest 393 452 38,000 -273 Level Los Angeles Center
12:27AM 36.2889 -120.3389 321° Northwest 393 452 37,400 -727 Descending Oakland Center
12:28AM 36.3711 -120.4242 320° Northwest 392 451 36,400 -934 Descending Oakland Center
12:29AM 36.4500 -120.5061 320° Northwest 392 451 35,500 -885 Descending Oakland Center
12:30AM 36.5353 -120.5936 321° Northwest 397 457 34,600 -984 Descending Oakland Center
12:31AM 36.6283 -120.6894 320° Northwest 401 461 33,500 -1,820 Descending Oakland Center
12:32AM 36.7203 -120.7861 320° Northwest 406 467 30,900 -2,803 Descending Oakland Center
12:33AM 36.7903 -120.8700 316° Northwest 393 452 27,800 -2,951 Descending Oakland Center
12:34AM 36.8717 -120.9592 319° Northwest 398 458 24,900 -3,148 Descending Oakland Center
12:35AM 36.9669 -121.0644 319° Northwest 384 442 21,400 -3,098 Descending Oakland Center
12:36AM 37.0419 -121.1511 317° Northwest 372 428 18,600 -2,754 Descending Oakland Center
12:37AM 37.1144 -121.2356 317° Northwest 359 413 15,800 -2,705 Descending Oakland Center
12:38AM 37.1853 -121.3161 318° Northwest 346 398 13,100 -2,508 Descending Oakland Center
12:39AM 37.2528 -121.3981 316° Northwest 340 391 10,700 -1,525 Descending Oakland Center
12:40AM 37.3156 -121.4700 318° Northwest 318 366 10,000 -1,131 Descending Oakland Center
12:41AM 37.3747 -121.5369 318° Northwest 290 334 8,400 -1,582 Descending Oakland Center
12:42AM 37.4167 -121.6000 310° West 273 314 7,100 -1,211 Descending Northern Cal TRACON
12:43AM 37.4833 -121.6667 322° Northwest 271 312 6,200 -800 Descending Northern Cal TRACON
12:44AM 37.5333 -121.7167 322° Northwest 268 308 5,500 -600 Descending Northern Cal TRACON
12:45AM 37.5667 -121.8000 297° West 244 281 5,000 -400 Descending Northern Cal TRACON
12:46AM 37.6000 -121.8667 302° West 230 265 4,700 -500 Descending Northern Cal TRACON
12:47AM 37.6000 -121.9500 270° West 214 246 4,000 -750 Descending Northern Cal TRACON
12:48AM 37.6167 -122.0167 288° West 203 234 3,200 -750 Descending Northern Cal TRACON
12:49AM 37.6167 -122.0833 270° West 180 207 2,500 -750 Descending Northern Cal TRACON
12:50AM 37.6500 -122.1333 310° West 157 181 1,700 -684 Descending Northern Cal TRACON
12:50AM 37.6469 -122.1342 192° South 174 200 1,600 -684 Descending Oakland Center
12:51AM 37.6756 -122.1756 311° West 145 167 800 -744 Descending Oakland Center
12:52AM 37.6978 -122.2083 311° West 132 152 100 -689 Descending Oakland Center
12:54AM 37.7167 -122.2167 270° West  Level FlightAware Approximate
01:01AM 37.7213 -122.2207 270° West  Level Estimated